Stations météo

Publicité
Calvi, France (7754): Température de l'air & dewpoint: 16.07.2018 10:00:00 - 22.07.2018 10:00:00 (CEST)Calvi, France (7754): Température de l'air 5cm: 16.07.2018 10:00:00 - 22.07.2018 10:00:00 (CEST)Calvi, France (7754): Vitesse du vent & gusts: 16.07.2018 10:00:00 - 22.07.2018 10:00:00 (CEST)Calvi, France (7754): Direction du vent: 16.07.2018 10:00:00 - 22.07.2018 10:00:00 (CEST)Calvi, France (7754): reduced air pressure: 16.07.2018 10:00:00 - 22.07.2018 10:00:00 (CEST)Calvi, France (7754): visibility: 16.07.2018 10:00:00 - 22.07.2018 10:00:00 (CEST)Calvi, France (7754): Quantités de précipitations: 16.07.2018 10:00:00 - 22.07.2018 10:00:00 (CEST)
Date & Time tt [°C] td [°C] tt 5cm [°C] ff [km/h] ff [knt] fx [km/h] fx [knt] dd ppp [hPa] vv [km] rr [mm]
22.07.2018 10:00:00 29,6 13,4 29,6 23 13 43 23 SSW 1010,7 60 0,0
22.07.2018 09:00:00 27,9 14,9 27,3 21 11 34 18 S 1010,9 60 0,0
22.07.2018 08:00:00 26,1 16,6 25,0 16 8 25 14 S 1010,9 45 0,0
22.07.2018 07:00:00 24,6 16,6 23,5 14 8 27 15 SSW 1011,0 54 0,0
22.07.2018 06:00:00 24,0 16,5 23,3 13 7 28 15 S 1010,9 55 0,0
22.07.2018 05:00:00 24,2 16,7 23,8 15 8 32 17 SSW 1010,8 53 0,0
22.07.2018 04:00:00 24,7 16,9 24,3 18 10 36 19 SSW 1010,6 50 0,0
22.07.2018 03:00:00 24,6 17,1 23,9 17 9 28 15 SSW 1010,6 52 0,0
22.07.2018 02:00:00 24,1 17,1 23,3 15 8 31 17 S 1010,8 50 0,0
22.07.2018 01:00:00 23,1 16,6 22,2 15 8 18 10 SSE 1011,7 60 0,0
22.07.2018 00:00:00 22,7 16,7 22,4 8 4 18 10 SSE 1011,8 16 0,0
21.07.2018 23:00:00 24,0 18,9 23,2 2 1 20 11 S 1011,1 37 0,0
21.07.2018 22:00:00 24,3 18,2 23,9 7 4 16 9 SW 1010,6 37 0,0
21.07.2018 21:00:00 25,6 18,8 25,4 2 1 21 12 ESE 1010,3 20 0,0
21.07.2018 20:00:00 28,4 16,3 - 14 8 21 12 S 1009,8 20 0,0
21.07.2018 19:00:00 30,1 15,0 - 10 5 22 12 SW 1009,4 44 0,0
21.07.2018 18:00:00 30,3 18,7 34,7 12 7 29 16 NE 1009,3 45 0,0
21.07.2018 17:00:00 28,8 20,3 34,0 18 10 29 16 N 1009,7 60 0,0
21.07.2018 16:00:00 28,3 21,1 34,2 22 12 33 18 N 1010,1 60 0,0
21.07.2018 15:00:00 28,8 19,7 33,1 22 12 33 18 N 1010,3 20 0,0
21.07.2018 14:00:00 28,7 18,5 33,0 20 11 31 17 N 1010,6 60 0,0
21.07.2018 13:00:00 28,4 16,3 32,8 18 10 36 20 NNW 1010,8 20 0,0
21.07.2018 12:00:00 28,7 19,9 33,2 19 10 30 16 NNW 1010,4 60 0,0
21.07.2018 11:00:00 28,9 19,0 29,3 10 6 17 9 N 1010,2 60 0,0
21.07.2018 10:00:00 26,7 17,7 27,1 4 2 9 5 SSW 1009,9 54 0,0
21.07.2018 09:00:00 25,2 17,9 25,7 5 3 11 6 NE 1009,8 57 0,0
21.07.2018 08:00:00 23,6 18,5 22,2 6 3 12 6 S 1010,0 39 0,0
21.07.2018 07:00:00 20,9 18,3 19,3 6 3 17 9 SW 1010,4 43 0,0
21.07.2018 06:00:00 19,5 17,6 19,1 7 4 13 7 SSW 1010,7 25 0,0
21.07.2018 05:00:00 19,9 18,0 19,5 8 5 12 7 SW 1010,1 20 0,0
21.07.2018 04:00:00 20,7 18,8 20,1 6 4 15 8 SW 1011,4 27 0,0
21.07.2018 03:00:00 20,6 18,0 20,1 10 5 14 7 S 1012,1 23 0,0
21.07.2018 02:00:00 20,3 18,1 20,3 8 4 13 7 SSE 1011,8 25 0,0
21.07.2018 01:00:00 20,9 18,7 20,7 4 2 13 7 WSW 1012,0 23 0,0
21.07.2018 00:00:00 21,6 18,8 21,2 8 5 12 6 S 1011,7 30 0,0
20.07.2018 23:00:00 22,1 19,3 21,8 6 3 12 6 S 1011,9 27 0,0
20.07.2018 22:00:00 23,8 20,1 23,3 0 0 12 7 N 1012,2 19 0,0
20.07.2018 21:00:00 24,7 20,6 24,8 6 3 18 10 E 1012,2 43 0,0
20.07.2018 20:00:00 26,5 20,3 28,5 11 6 21 11 ENE 1012,5 56 0,0
20.07.2018 19:00:00 27,7 19,8 31,1 17 9 29 16 NNE 1012,6 56 0,0
20.07.2018 18:00:00 27,7 19,5 32,9 12 7 21 11 N 1012,5 60 0,0
20.07.2018 17:00:00 28,7 20,2 34,0 16 8 28 15 NNE 1013,1 60 0,0
20.07.2018 16:00:00 28,0 20,3 34,2 18 10 35 19 N 1013,7 60 0,0
20.07.2018 15:00:00 29,2 20,6 34,4 24 13 33 18 N 1013,9 20 0,0
20.07.2018 14:00:00 30,7 18,4 35,6 18 10 29 16 N 1013,7 60 0,0
20.07.2018 13:00:00 31,1 18,8 36,6 10 5 23 12 NNE 1013,9 60 0,0
20.07.2018 12:00:00 30,2 19,9 34,5 11 6 25 13 NNW 1013,9 55 0,0
20.07.2018 11:00:00 29,0 19,0 31,3 10 5 19 10 N 1013,9 19 0,0
20.07.2018 10:00:00 27,8 20,6 29,0 7 4 16 9 N 1014,2 20 0,0
20.07.2018 09:00:00 26,1 19,2 26,4 4 2 10 5 N 1014,5 34 0,0
20.07.2018 08:00:00 23,9 17,6 20,5 0 0 11 6 N 1014,3 47 0,0
20.07.2018 07:00:00 19,5 16,2 17,8 3 2 12 6 S 1014,3 27 0,0
20.07.2018 06:00:00 18,9 15,8 18,2 6 3 14 8 S 1014,3 18 0,0
20.07.2018 05:00:00 18,9 15,9 18,3 6 3 14 8 SSW 1014,4 22 0,0
20.07.2018 04:00:00 19,0 15,9 19,0 9 5 11 6 S 1014,6 36 0,0
20.07.2018 03:00:00 19,0 15,9 19,1 9 5 15 8 S 1014,6 35 0,0
20.07.2018 02:00:00 19,6 16,8 19,1 9 5 14 7 S 1014,8 28 0,0
20.07.2018 01:00:00 20,1 16,9 19,8 4 2 12 6 SSW 1014,7 30 0,0
20.07.2018 00:00:00 21,0 17,2 21,0 5 3 12 6 S 1014,6 27 0,0
19.07.2018 23:00:00 22,8 19,2 22,1 4 2 10 6 S 1014,3 29 0,0
19.07.2018 22:00:00 24,1 21,0 23,9 5 3 15 8 E 1014,4 28 0,0
19.07.2018 21:00:00 25,6 20,8 25,6 11 6 18 10 E 1013,8 40 0,0
19.07.2018 20:00:00 28,4 17,9 30,3 13 7 19 10 SE 1013,5 57 0,0
19.07.2018 19:00:00 30,1 17,5 33,9 11 6 32 17 N 1013,2 55 0,0
19.07.2018 18:00:00 31,2 15,6 - 7 4 27 14 W 1013,2 54 0,0
19.07.2018 17:00:00 31,7 15,2 36,8 14 8 29 16 WSW 1013,3 20 0,0
19.07.2018 16:00:00 31,4 16,2 36,7 17 9 33 18 W 1013,7 60 0,0
19.07.2018 15:00:00 32,0 15,9 35,9 16 9 33 18 W 1013,9 60 0,0
19.07.2018 14:00:00 31,7 15,2 - 17 9 34 19 WSW 1014,0 60 0,0
19.07.2018 13:00:00 31,1 15,5 - 19 10 37 20 W 1014,0 60 0,0
19.07.2018 12:00:00 32,0 11,7 35,8 11 6 22 12 S 1013,9 60 0,0
19.07.2018 11:00:00 30,1 18,5 31,5 9 5 25 14 E 1013,9 60 0,0
19.07.2018 10:00:00 28,9 19,0 31,1 19 10 26 14 N 1013,5 60 0,0
19.07.2018 09:00:00 29,1 12,1 27,3 4 2 7 4 NNE 1013,3 47 0,0
19.07.2018 08:00:00 25,6 13,4 21,6 6 4 13 7 SSE 1013,0 55 0,0
19.07.2018 07:00:00 21,3 12,2 18,9 11 6 16 9 SSW 1013,3 49 0,0
19.07.2018 06:00:00 19,3 11,8 18,9 6 3 15 8 S 1013,3 20 0,0
19.07.2018 05:00:00 20,9 12,3 20,1 10 6 15 8 SSW 1013,4 58 0,0
19.07.2018 04:00:00 21,2 12,9 19,6 8 5 10 5 SW 1013,9 59 0,0
19.07.2018 03:00:00 20,0 13,2 18,7 5 3 11 6 SSW 1014,3 59 0,0
19.07.2018 02:00:00 19,9 13,6 19,0 6 3 11 6 SSW 1014,7 51 0,0
19.07.2018 01:00:00 21,2 13,1 20,4 5 3 16 8 SSE 1015,2 51 0,0
19.07.2018 00:00:00 21,3 14,0 20,4 6 3 11 6 S 1015,1 48 0,0
18.07.2018 23:00:00 21,3 14,9 20,9 5 3 12 6 S 1014,5 42 0,0
18.07.2018 22:00:00 23,1 16,9 22,5 6 4 11 6 S 1014,0 36 0,0
18.07.2018 21:00:00 25,7 19,1 25,2 0 0 15 8 N 1013,4 32 0,0
18.07.2018 20:00:00 27,5 19,0 29,4 12 7 18 10 ENE 1013,6 48 0,0
18.07.2018 19:00:00 30,4 17,1 34,3 11 6 23 12 NNE 1013,3 45 0,0
18.07.2018 18:00:00 31,6 15,5 35,8 16 8 23 12 NNE 1013,4 41 0,0
18.07.2018 17:00:00 30,8 18,9 36,1 14 8 26 14 NE 1014,0 19 0,0
18.07.2018 16:00:00 30,5 20,1 35,8 16 9 26 14 N 1014,4 19 0,0
18.07.2018 15:00:00 29,2 21,2 33,7 17 9 27 15 N 1014,7 20 0,0
18.07.2018 14:00:00 28,7 21,5 31,9 17 9 29 16 N 1015,0 19 0,0
18.07.2018 13:00:00 28,1 20,6 33,2 16 9 22 12 N 1015,2 52 0,0
18.07.2018 12:00:00 27,2 20,5 - 16 9 30 16 N 1015,2 20 0,0
18.07.2018 11:00:00 26,8 20,2 - 12 7 19 11 NNW 1015,0 55 0,0
18.07.2018 10:00:00 26,2 20,5 - 10 6 17 9 NNW 1015,0 19 0,0
18.07.2018 09:00:00 25,7 21,1 - 6 4 11 6 N 1014,8 19 0,0
18.07.2018 08:00:00 24,0 17,3 19,8 4 2 14 7 NNE 1014,7 19 0,0
18.07.2018 07:00:00 18,8 13,9 17,0 14 8 17 9 SSE 1014,3 45 0,0
18.07.2018 06:00:00 17,5 14,2 17,2 7 4 13 7 S 1014,6 26 0,0
18.07.2018 05:00:00 18,2 14,5 18,2 12 7 15 8 S 1014,0 24 0,0
18.07.2018 04:00:00 18,9 15,4 18,6 5 3 16 8 S 1014,3 24 0,0
18.07.2018 03:00:00 19,7 16,5 18,4 12 7 16 9 S 1014,5 27 0,0
18.07.2018 02:00:00 19,1 16,7 18,7 3 1 7 4 SSW 1014,6 16 0,0
18.07.2018 01:00:00 20,2 17,2 20,0 7 4 11 6 S 1014,4 17 0,0
18.07.2018 00:00:00 21,7 18,3 21,0 7 4 11 6 S 1014,1 20 0,0
17.07.2018 23:00:00 22,0 19,0 21,4 2 1 8 4 W 1013,9 21 0,0
17.07.2018 22:00:00 23,7 19,8 22,9 0 0 11 6 N 1014,0 18 0,0
17.07.2018 21:00:00 25,2 20,0 25,1 9 5 17 9 ENE 1013,2 35 0,0
17.07.2018 20:00:00 27,8 19,8 30,7 8 5 18 10 ENE 1012,6 20 0,0
17.07.2018 19:00:00 28,7 19,6 32,9 13 7 21 11 ENE 1012,6 20 0,0
17.07.2018 18:00:00 30,5 17,9 35,6 12 6 28 15 NNE 1012,4 45 0,0
17.07.2018 17:00:00 31,7 17,6 36,7 13 7 42 23 ENE 1012,4 35 0,0
17.07.2018 16:00:00 30,8 16,4 37,2 11 6 21 11 WSW 1012,7 20 0,0
17.07.2018 15:00:00 31,1 14,7 35,7 10 5 24 13 NW 1012,7 20 0,0
17.07.2018 14:00:00 30,8 16,8 34,6 10 5 22 12 NNW 1012,6 60 0,0
17.07.2018 13:00:00 30,2 15,1 35,1 10 5 26 14 NNW 1012,5 20 0,0
17.07.2018 12:00:00 28,8 17,7 - 11 6 19 10 NNE 1012,5 20 0,0
17.07.2018 11:00:00 28,0 17,8 29,6 9 5 16 9 N 1012,4 48 0,0
17.07.2018 10:00:00 26,9 15,6 28,3 8 4 12 7 NNW 1012,2 59 0,0
17.07.2018 09:00:00 25,4 14,8 24,1 4 2 11 6 NNE 1011,9 60 0,0
17.07.2018 08:00:00 22,4 16,0 19,9 9 5 15 8 SSW 1011,8 55 0,0
17.07.2018 07:00:00 18,5 15,7 17,2 6 3 11 6 SSW 1011,8 51 0,0
17.07.2018 06:00:00 18,2 15,4 17,6 7 4 12 6 S 1011,7 60 0,0
17.07.2018 05:00:00 19,3 15,6 18,2 11 6 20 11 SSE 1011,5 46 0,0
17.07.2018 04:00:00 19,6 17,4 18,7 11 6 16 8 S 1011,6 50 0,0
17.07.2018 03:00:00 20,1 17,3 19,8 8 4 14 7 S 1011,8 38 0,0
17.07.2018 02:00:00 20,8 17,4 20,1 6 4 12 6 S 1011,7 41 0,0
17.07.2018 01:00:00 22,1 17,5 20,1 8 4 27 14 SW 1011,3 39 0,6
17.07.2018 00:00:00 22,2 18,4 20,1 22 12 30 16 S 1010,1 20 2,4
16.07.2018 23:00:00 22,3 17,9 21,7 12 7 29 16 S 1009,6 19 0,0
16.07.2018 22:00:00 22,7 18,2 21,5 19 11 33 18 S 1009,7 20 0,0
16.07.2018 21:00:00 24,7 18,9 22,4 26 14 54 29 SSW 1008,7 15 0,0
16.07.2018 20:00:00 27,2 18,5 27,7 26 14 45 25 SW 1007,7 18 0,0
16.07.2018 19:00:00 29,7 19,1 30,3 22 12 45 25 SSW 1007,1 18 0,0
16.07.2018 18:00:00 30,0 19,4 30,8 22 12 55 30 SSW 1007,8 17 0,0
16.07.2018 17:00:00 30,2 18,9 32,6 36 20 74 40 SSW 1008,4 16 0,0
16.07.2018 16:00:00 31,0 16,2 30,7 26 14 46 25 SW 1009,4 20 0,0
16.07.2018 15:00:00 28,8 18,0 30,2 23 12 36 20 N 1008,5 52 0,0
16.07.2018 14:00:00 28,1 20,6 30,8 21 12 34 19 NNW 1008,5 56 0,0
16.07.2018 13:00:00 29,1 21,3 31,0 12 6 19 10 NW 1009,2 19 0,0
16.07.2018 12:00:00 28,1 20,4 27,2 6 3 17 9 WSW 1010,4 37 0,0
16.07.2018 11:00:00 25,7 21,4 26,7 6 4 23 13 NW 1011,0 25 0,0
16.07.2018 10:00:00 26,9 21,0 25,7 12 7 29 15 N 1011,8 31 0,0

tt = Température de l'air
td = dewpoint
tt 5cm = Température de l'air 5cm
ff = Vitesse du vent
fx = gusts
dd = Direction du vent
ppp = reduced air pressure
vv = visibility
rr = Quantités de précipitations

stations d'obs. à proximité